Temperature
14 13 13 13 12 12 12 12 11 11 11 11 11 11 11 11 11 12 12 12 12 13 13 13 13 14 14 14 14 15 15 15 15 15 16 16 16 16 16 16 17 17 17
14 13 13 13 13 12 12 12 11 11 11 11 11 11 11 11 11 11 11 12 12 12 12 13 13 13 13 14 14 14 14 15 15 15 15 15 16 16 16 16 16 16 16
14 13 13 13 13 12 12 12 11 11 11 11 11 11 11 11 11 11 11 11 12 12 12 12 13 13 13 13 14 14 14 14 14 14 15 15 15 15 15 15 16 16 16
14 14 13 13 13 12 12 12 11 11 11 11 11 11 11 11 11 11 11 11 11 11 12 12 12 12 13 13 13 14 14 14 14 14 14 14 15 15 15 15 15 15 15
15 14 14 13 13 12 12 12 11 11 11 11 11 11 11 11 11 11 11 11 11 11 11 11 12 12 12 13 13 13 13 14 14 14 14 14 14 14 14 15 15 15 15
15 15 14 13 13 12 12 12 12 11 11 11 11 11 11 11 11 11 11 11 11 11 11 11 12 12 12 12 13 13 13 13 13 13 13 13 14 14 14 14 14 14 14
15 15 14 14 13 13 12 12 12 11 11 11 11 11 11 11 11 11 11 11 11 11 11 11 11 12 12 12 12 13 13 13 13 13 13 13 14 14 14 14 14 14 14
16 15 15 14 14 13 13 12 12 12 11 11 11 11 11 11 11 11 11 11 11 11 11 11 11 11 12 12 12 12 13 13 13 13 13 13 13 14 14 14 14 14 14
16 16 15 14 14 14 13 13 12 12 12 12 11 11 11 11 11 11 11 11 11 11 11 11 11 11 12 12 12 12 12 13 13 13 13 13 13 13 13 13 13 13 13
17 16 15 15 15 14 14 14 13 13 12 12 12 12 11 11 11 11 11 11 11 11 11 11 11 11 11 11 12 12 12 12 12 13 13 13 13 13 13 13 13 13 13
17 16 16 15 15 15 14 14 14 13 13 13 12 12 12 12 12 11 11 11 11 11 11 11 11 11 11 11 12 12 12 12 12 12 12 12 13 13 13 13 13 13 13
16 16 16 16 15 15 14 14 14 14 13 13 13 13 12 12 12 12 11 11 11 11 11 11 11 11 11 11 12 12 12 12 12 12 12 12 12 12 12 12 13 13 12
16 16 16 15 15 15 15 15 14 14 14 13 13 13 13 12 12 12 12 11 11 11 11 11 11 11 11 11 12 12 12 12 12 12 12 12 12 12 12 12 12 12 12
16 16 16 15 15 15 15 15 15 14 14 14 13 13 13 13 12 12 12 12 11 11 11 11 11 11 11 11 11 12 12 12 12 12 12 12 12 12 12 12 12 12 12
15 15 15 15 16 16 15 15 15 15 14 14 14 14 13 13 13 12 12 12 12 11 11 11 11 11 11 11 11 11 11 11 11 12 12 12 12 12 11 11 11 11 11
15 15 15 15 15 15 15 15 15 15 15 15 14 14 14 14 13 13 12 12 12 12 11 11 11 11 11 11 11 11 11 11 11 11 11 11 11 11 11 11 11 11 11
13 13 13 14 14 14 14 14 14 14 14 15 15 14 14 14 14 13 13 12 12 12 12 12 11 11 11 11 11 11 11 11 11 11 11 11 11 11 11 11 11 11 11
12 12 12 13 13 13 13 13 13 14 14 14 14 14 14 14 14 13 13 13 13 12 12 12 12 11 11 11 11 11 11 11 11 11 11 11 11 11 11 11 11 11 11
11 11 11 12 12 12 12 12 12 13 13 13 14 14 14 14 14 13 13 13 13 13 12 12 12 12 11 11 11 12 12 12 11 11 11 11 11 11 11 11 11 11 11
10 10 10 10 10 10 11 11 11 12 12 12 13 13 13 13 13 13 13 13 13 13 12 12 12 12 12 12 11 12 12 12 11 11 11 11 11 11 11 11 11 11 11
9 9 9 9 9 9 9 10 10 10 11 11 12 12 12 12 13 13 13 12 12 12 12 12 12 12 12 12 12 11 11 12 12 11 11 11 11 11 11 11 11 11 11
8 8 8 8 8 8 8 8 9 9 9 10 10 11 11 11 11 12 12 12 12 12 12 12 12 12 12 11 11 11 11 11 11 11 11 11 11 11 11 11 11 11 11
7 7 7 7 7 7 7 7 8 8 8 8 8 9 9 9 10 10 10 10 11 11 11 11 11 11 11 11 11 11 11 11 11 11 11 11 11 11 11 11 11 11 11
6 6 6 6 6 6 6 6 6 7 7 7 7 7 7 8 8 8 9 9 9 10 10 10 10 10 11 11 11 11 11 11 11 11 11 11 11 11 11 11 11 11 11
6 6 6 6 6 6 6 6 6 6 6 6 6 6 6 6 6 7 7 7 8 8 9 9 9 9 10 10 10 10 10 10 11 11 11 11 11 11 11 11 11 11 11
6 6 6 6 5 5 5 5 5 5 5 5 5 5 5 5 5 5 5 5 6 6 7 7 8 8 8 8 9 9 9 10 10 10 10 10 11 11 11 11 11 11 11
Wind_Speed
1 3 4 3 3 4 4 4 5 5 6 7 7 7 6 6 6 5 5 6 6 6 5 5 6 6 5 5 5 5 6 5 6 4 4 4 5 5 6 8 11 14 17
1 3 4 4 3 3 5 5 6 6 6 6 6 6 7 7 6 6 6 7 6 6 6 6 6 5 5 5 5 6 6 6 6 6 4 4 6 5 5 6 6 10 13
1 2 4 5 3 3 4 5 6 6 7 7 6 6 6 6 6 6 7 7 7 6 6 6 5 5 4 3 4 5 5 6 5 5 4 4 4 4 4 4 5 5 9
2 2 3 4 3 3 4 5 5 6 6 7 6 6 6 6 6 6 8 8 8 7 6 6 5 4 4 4 4 4 5 5 5 5 4 4 4 4 5 5 5 5 6
2 2 1 3 3 3 4 5 5 5 7 6 6 6 6 6 5 6 7 9 8 8 7 6 5 5 6 4 4 4 4 4 4 5 5 4 5 5 6 5 6 5 5
2 2 1 1 2 2 4 4 4 5 6 5 6 6 6 5 5 7 7 7 8 8 7 7 6 5 6 7 7 7 6 6 5 5 5 6 7 6 6 7 7 6 5
2 1 1 1 1 2 4 4 5 5 5 5 6 6 5 4 5 7 9 7 8 8 7 6 6 5 5 4 6 7 7 10 10 7 7 7 6 6 7 8 8 6 5
2 2 3 3 3 3 4 4 5 5 5 5 5 6 5 5 4 5 9 8 8 7 6 5 5 5 4 4 5 5 5 6 7 7 7 7 6 5 7 7 7 5 4
3 3 3 3 3 3 4 5 5 4 5 5 5 5 6 4 1 3 6 6 7 7 6 5 5 4 5 6 5 6 6 5 5 6 7 7 7 8 7 6 7 7 5
4 4 3 2 3 4 5 5 5 5 5 6 6 5 6 4 2 2 4 4 6 6 6 5 4 5 6 6 5 5 6 4 3 3 4 6 6 8 11 9 8 8 5
1 1 2 3 4 5 6 5 5 6 6 6 7 6 6 4 3 3 2 2 4 6 6 5 4 7 8 8 7 5 7 5 4 3 3 3 4 5 6 6 6 7 7
2 3 5 6 6 6 6 6 6 6 7 7 7 6 4 4 4 5 5 5 5 5 5 4 4 9 10 9 6 6 7 5 3 3 2 3 4 4 4 5 6 5 5
4 6 7 7 7 7 7 7 6 6 6 6 5 5 4 3 4 7 7 7 7 5 5 7 9 11 10 7 6 6 5 2 2 2 2 2 2 3 4 4 5 5 5
6 7 7 7 7 7 6 6 6 5 5 5 5 5 4 3 2 2 2 3 5 4 5 7 9 9 6 5 5 4 2 1 0 1 1 1 2 3 4 4 5 6 5
7 7 6 6 6 6 6 6 7 6 7 7 6 5 4 4 2 2 2 2 2 3 5 5 5 4 3 2 3 2 1 1 0 0 1 2 3 4 4 4 4 5 4
7 7 6 5 5 5 5 6 10 11 13 14 13 10 7 7 6 7 6 5 5 5 4 5 5 4 3 3 2 2 1 1 1 1 2 2 3 4 4 4 4 5 6
8 7 6 6 6 6 6 6 6 8 12 14 14 14 13 11 9 9 8 6 7 6 4 6 6 5 4 3 3 2 2 2 2 2 2 3 3 4 4 4 5 5 6
8 7 7 6 7 7 7 7 6 6 6 5 9 16 17 15 13 11 8 4 5 6 6 7 6 5 4 4 4 3 3 3 3 3 3 4 4 4 5 5 6 6 6
7 6 7 7 7 7 6 7 6 7 6 5 5 5 10 11 10 9 7 5 7 7 7 7 7 6 5 5 5 4 4 4 4 4 5 5 5 5 5 5 6 8 7
6 10 9 7 7 7 7 7 7 7 6 6 5 4 1 1 3 5 7 7 8 8 7 7 6 6 6 5 5 5 5 5 5 5 5 6 6 6 6 7 7 7 7
6 8 11 8 6 7 8 8 8 8 7 7 6 7 6 2 3 4 4 6 7 8 8 7 6 6 6 5 5 6 6 5 5 6 6 6 6 6 6 6 7 7 7
6 6 6 7 7 7 8 8 8 9 10 10 9 9 11 7 5 5 4 4 4 5 5 5 6 5 6 6 6 6 6 7 6 6 6 7 7 7 6 6 7 7 7
6 7 7 7 6 9 9 8 8 9 9 10 10 10 10 9 9 10 9 9 8 6 5 4 4 4 5 5 6 7 8 8 7 7 7 7 7 7 7 8 9 9 9
6 6 6 6 7 7 7 7 8 8 9 9 9 9 9 9 10 11 11 11 11 11 10 8 7 7 8 6 5 5 6 7 7 8 10 9 9 8 8 8 8 9 10
5 5 5 5 6 6 6 7 7 7 8 8 8 9 9 9 10 10 10 11 12 12 14 13 10 11 13 13 10 7 8 11 11 8 8 9 10 10 9 9 8 9 9
5 5 4 4 5 5 6 6 6 7 6 6 7 7 7 8 8 8 9 9 11 11 12 12 15 17 18 13 14 15 13 11 12 13 9 8 10 10 10 9 11 10 11
Wind_Direction
347 336 338 334 318 310 320 326 316 318 325 326 330 332 337 338 334 332 322 317 309 300 293 281 268 249 233 232 228 223 224 218 230 240 221 213 213 208 192 195 185 180 191
70 338 322 304 305 342 346 340 338 329 325 325 331 337 340 339 336 333 329 326 314 306 301 298 286 273 245 231 224 223 222 218 217 231 230 213 216 206 193 197 192 183 185
143 288 302 312 348 351 335 341 334 327 331 330 331 338 337 335 337 338 336 325 319 312 309 305 300 294 272 247 231 225 225 228 217 220 225 213 213 200 197 205 201 188 186
210 234 281 308 341 353 348 337 326 333 334 328 336 338 334 333 338 352 344 330 323 317 310 303 298 298 288 276 259 245 233 227 222 220 222 210 204 193 182 194 204 195 189
236 231 279 343 358 356 336 324 332 336 328 327 332 330 331 330 353 359 339 327 323 318 314 308 299 294 291 277 266 258 247 233 225 220 224 215 207 188 192 187 196 187 192
231 222 163 259 302 315 306 311 320 312 306 316 318 318 324 334 343 340 331 318 312 309 310 307 298 284 283 280 268 258 246 240 232 223 224 222 218 208 193 185 182 184 196
225 199 171 226 270 288 305 312 308 305 309 318 313 314 317 329 322 329 332 319 299 299 301 302 304 306 310 300 292 276 262 250 237 227 227 226 214 203 193 191 190 187 187
202 209 209 210 234 255 270 279 283 291 306 305 303 310 315 316 319 329 332 312 301 301 302 300 302 310 328 333 313 294 275 255 240 232 231 230 218 201 192 193 186 170 143
190 217 229 216 220 240 264 273 272 277 283 287 290 296 300 300 306 322 333 311 308 313 326 328 325 326 328 332 308 292 287 274 251 235 225 219 210 200 183 169 174 173 171
203 212 226 226 229 242 254 267 274 273 271 277 278 275 279 279 233 273 328 311 316 321 323 328 347 342 329 323 307 295 289 283 270 247 225 215 208 199 192 188 186 182 167
126 198 243 249 246 244 244 251 265 273 276 276 277 271 262 251 220 208 257 293 310 316 319 327 340 345 335 325 311 288 281 285 275 257 232 198 185 186 190 193 190 185 175
266 241 243 247 252 257 242 243 250 262 273 277 275 276 264 230 204 207 227 256 277 291 303 315 324 329 326 319 309 295 294 287 256 243 231 205 191 188 182 177 178 179 176
264 252 245 245 244 240 239 242 244 247 254 265 270 273 274 246 208 211 225 253 267 268 286 299 304 307 312 309 300 306 310 290 254 232 223 208 185 165 150 144 140 135 125
282 266 254 250 249 244 237 231 233 240 250 260 267 272 274 267 243 192 221 261 275 282 295 302 298 294 290 287 295 294 288 294 284 241 200 167 147 141 140 138 140 136 128
302 293 283 273 267 262 252 235 233 231 228 235 246 254 268 273 233 187 215 276 316 319 320 302 291 287 293 288 291 296 302 331 325 201 148 146 147 144 141 138 140 137 136
324 320 318 312 301 289 278 273 251 242 244 237 233 235 246 245 223 219 229 248 269 290 305 288 289 284 278 278 279 275 262 249 219 171 148 144 150 152 150 148 148 144 144
328 329 329 325 319 310 301 291 287 277 256 249 245 241 238 243 239 235 240 255 270 273 264 267 269 268 264 260 251 241 238 226 194 179 174 171 164 160 159 160 158 152 152
338 343 341 324 317 310 304 300 295 291 290 276 253 242 239 238 237 238 237 249 266 243 237 250 258 256 251 247 243 233 226 218 202 193 186 183 176 171 170 172 170 163 157
343 345 337 324 316 315 316 315 310 307 302 296 293 270 242 238 237 235 210 221 246 253 248 243 243 242 237 237 234 224 217 214 210 201 198 191 184 178 178 177 173 170 163
341 347 343 332 334 339 335 329 327 326 323 321 318 319 1 172 219 218 209 223 237 248 254 252 246 235 228 226 225 221 220 217 213 210 204 196 190 187 187 182 178 176 177
346 347 350 349 349 351 344 342 343 342 342 341 335 336 348 293 258 258 239 225 231 238 245 247 245 238 228 220 218 218 221 223 216 208 204 198 194 192 191 185 183 179 176
350 355 354 356 358 360 354 353 355 355 355 353 349 350 353 353 337 323 315 305 282 265 253 245 241 235 223 217 215 217 221 225 222 212 207 200 196 193 188 187 184 183 181
354 357 357 359 0 358 0 1 2 1 0 359 359 1 2 359 355 353 347 339 334 328 320 305 281 266 251 232 220 216 222 226 222 213 208 207 203 198 192 191 191 185 184
351 354 355 357 359 358 356 358 0 0 360 359 360 1 359 357 356 356 357 356 354 350 347 339 327 316 305 289 256 238 231 230 224 220 211 209 208 204 198 195 194 192 190
340 344 348 351 352 351 350 350 353 356 356 356 358 357 355 354 354 354 356 356 353 351 348 348 346 339 328 321 315 301 276 254 244 238 224 214 212 208 203 200 197 194 192
322 332 339 341 341 340 341 340 342 344 344 347 347 345 345 345 345 348 350 349 347 345 345 343 342 342 337 336 334 327 315 294 271 253 242 229 219 217 210 207 202 199 195
Height
1512 1510 1509 1507 1505 1503 1501 1499 1497 1495 1492 1490 1488 1486 1485 1483 1481 1479 1478 1477 1476 1475 1475 1475 1474 1475 1475 1476 1478 1480 1481 1483 1484 1486 1488 1490 1492 1495 1497 1501 1505 1507 1511
1510 1509 1508 1506 1504 1502 1500 1498 1495 1493 1491 1489 1487 1485 1483 1481 1479 1477 1476 1474 1473 1472 1472 1471 1471 1471 1472 1472 1473 1474 1476 1478 1480 1481 1482 1485 1487 1490 1493 1495 1499 1502 1505
1509 1508 1506 1505 1503 1501 1499 1496 1494 1492 1490 1488 1486 1484 1481 1479 1477 1475 1474 1472 1471 1470 1469 1468 1468 1468 1468 1468 1469 1470 1471 1473 1474 1476 1477 1480 1482 1484 1487 1490 1493 1496 1499
1508 1506 1505 1504 1502 1500 1497 1495 1493 1491 1488 1486 1484 1482 1480 1477 1475 1473 1471 1469 1468 1467 1466 1465 1465 1464 1464 1465 1465 1466 1467 1468 1469 1471 1472 1474 1476 1479 1482 1484 1487 1490 1493
1507 1505 1504 1502 1500 1498 1496 1494 1492 1489 1487 1485 1483 1480 1478 1476 1473 1471 1469 1467 1465 1464 1463 1463 1462 1461 1461 1461 1461 1462 1462 1463 1464 1466 1467 1469 1470 1473 1475 1477 1481 1484 1487
1505 1504 1502 1501 1499 1497 1495 1493 1490 1488 1486 1484 1481 1479 1476 1474 1472 1469 1467 1465 1463 1462 1461 1460 1459 1458 1458 1458 1458 1458 1459 1459 1460 1461 1462 1463 1464 1467 1469 1472 1475 1478 1480
1504 1503 1501 1499 1498 1495 1493 1491 1489 1487 1485 1482 1480 1478 1475 1472 1470 1468 1465 1463 1461 1460 1458 1457 1456 1456 1455 1454 1454 1454 1454 1455 1456 1456 1457 1458 1459 1461 1464 1466 1469 1472 1474
1502 1501 1500 1498 1496 1494 1492 1490 1488 1486 1483 1481 1479 1476 1474 1471 1468 1466 1464 1461 1459 1458 1456 1455 1454 1453 1452 1451 1450 1450 1450 1450 1451 1451 1452 1453 1455 1456 1458 1461 1463 1466 1469
1500 1499 1498 1496 1495 1493 1491 1488 1486 1484 1482 1480 1477 1475 1472 1470 1467 1465 1462 1460 1458 1456 1455 1453 1451 1450 1449 1448 1447 1446 1446 1446 1446 1447 1447 1449 1450 1452 1453 1455 1458 1461 1463
1499 1497 1496 1495 1493 1491 1489 1487 1485 1483 1481 1478 1476 1474 1471 1469 1466 1464 1461 1458 1456 1454 1452 1451 1449 1448 1447 1445 1444 1443 1442 1442 1442 1443 1443 1444 1445 1447 1448 1450 1453 1455 1458
1496 1495 1494 1492 1490 1489 1487 1485 1483 1481 1479 1477 1474 1472 1470 1468 1465 1462 1460 1457 1455 1452 1451 1449 1447 1446 1444 1443 1442 1440 1439 1439 1439 1439 1440 1440 1441 1442 1444 1446 1448 1451 1453
1493 1492 1491 1489 1487 1486 1484 1482 1480 1478 1476 1474 1472 1470 1469 1466 1464 1461 1459 1456 1454 1451 1449 1447 1446 1444 1442 1441 1439 1438 1437 1436 1436 1436 1437 1437 1438 1439 1440 1443 1445 1447 1450
1490 1488 1487 1486 1484 1482 1481 1479 1477 1475 1473 1472 1470 1468 1466 1465 1462 1460 1457 1455 1453 1450 1448 1446 1444 1442 1441 1439 1437 1436 1435 1434 1434 1434 1434 1434 1435 1436 1438 1440 1441 1444 1446
1486 1485 1483 1482 1480 1479 1477 1476 1474 1472 1471 1469 1467 1465 1464 1462 1460 1457 1455 1453 1451 1449 1447 1445 1443 1441 1439 1438 1436 1435 1434 1433 1433 1432 1432 1433 1434 1434 1436 1437 1439 1441 1444
1483 1481 1480 1478 1477 1475 1473 1472 1470 1469 1467 1466 1464 1462 1460 1458 1457 1455 1453 1451 1449 1447 1445 1443 1441 1440 1438 1437 1436 1435 1434 1433 1433 1432 1432 1432 1432 1433 1434 1436 1438 1440 1442
1479 1477 1476 1474 1472 1470 1469 1467 1465 1464 1463 1461 1460 1459 1456 1455 1453 1452 1450 1449 1447 1445 1443 1441 1440 1439 1437 1436 1435 1434 1434 1433 1433 1432 1432 1432 1432 1433 1434 1436 1437 1439 1441
1475 1473 1471 1469 1467 1466 1464 1462 1460 1459 1458 1457 1456 1454 1453 1451 1450 1448 1447 1445 1444 1442 1441 1439 1438 1437 1436 1435 1434 1433 1433 1433 1432 1432 1432 1432 1432 1433 1434 1435 1437 1439 1441
1472 1470 1468 1466 1464 1462 1460 1458 1457 1455 1454 1452 1451 1450 1449 1447 1446 1445 1443 1442 1440 1439 1438 1436 1435 1435 1434 1433 1432 1431 1431 1431 1431 1431 1431 1432 1432 1433 1434 1435 1436 1438 1440
1469 1467 1465 1463 1461 1459 1457 1455 1453 1452 1450 1448 1447 1446 1444 1443 1442 1441 1439 1438 1436 1435 1434 1433 1433 1432 1431 1430 1430 1429 1429 1429 1429 1429 1430 1430 1431 1432 1433 1434 1435 1437 1439
1467 1465 1463 1461 1458 1456 1454 1452 1450 1449 1447 1445 1444 1442 1440 1438 1437 1437 1436 1435 1433 1432 1431 1430 1430 1429 1428 1428 1427 1427 1427 1427 1427 1427 1427 1428 1429 1430 1431 1432 1434 1436 1438
1466 1464 1462 1460 1457 1455 1453 1451 1449 1447 1445 1443 1441 1440 1438 1436 1434 1433 1432 1431 1430 1429 1428 1427 1426 1426 1425 1425 1424 1424 1423 1423 1424 1424 1424 1425 1426 1427 1429 1430 1432 1434 1436
1466 1464 1461 1459 1457 1454 1452 1450 1448 1446 1443 1441 1439 1437 1435 1433 1431 1430 1429 1427 1426 1425 1424 1423 1422 1422 1421 1421 1420 1420 1419 1419 1420 1420 1421 1422 1423 1424 1425 1427 1429 1430 1432
1465 1463 1461 1459 1457 1455 1452 1450 1447 1445 1443 1440 1438 1435 1433 1431 1429 1427 1425 1423 1422 1421 1419 1418 1417 1417 1416 1416 1416 1415 1415 1415 1415 1416 1417 1417 1418 1420 1421 1422 1424 1426 1428
1465 1463 1461 1459 1457 1455 1452 1450 1448 1445 1442 1440 1437 1434 1432 1429 1427 1425 1422 1420 1417 1416 1414 1413 1412 1411 1410 1410 1410 1410 1410 1410 1410 1411 1411 1412 1413 1414 1415 1417 1419 1421 1423
1465 1463 1461 1459 1457 1455 1453 1450 1448 1445 1443 1440 1437 1434 1431 1428 1425 1422 1419 1416 1414 1412 1409 1408 1406 1405 1404 1403 1402 1403 1403 1403 1403 1404 1404 1405 1406 1407 1409 1411 1413 1415 1417
1464 1462 1460 1459 1457 1455 1452 1450 1447 1445 1442 1439 1436 1433 1430 1427 1423 1420 1417 1414 1411 1408 1405 1402 1400 1398 1396 1395 1394 1394 1394 1394 1395 1395 1396 1397 1398 1399 1401 1403 1405 1407 1410